Coolidge Muni, Coolidge, AZ

4:17 AM MST on December 13, 2019 (GMT -0700)
Coolidge Muni, Coolidge

Weather History for KP08 - September, 2019

Change the Weather History Date:

Friday, September 13, 2019

  Actual Average (KCGZ) Record (KCGZ)
Temperature  
Mean Temperature 94 °F -  
Max Temperature 104 °F 96 °F 107 °F (2000)
Min Temperature 84 °F 70 °F 59 °F (2005)
Cooling Degree Days 29    
Growing Degree Days 44 (Base 50)    
Moisture  
Dew Point 39 °F    
Average Humidity 14    
Maximum Humidity 23    
Minimum Humidity 9    
Precipitation  
Precipitation 0.00 in - - ()
Sea Level Pressure  
Sea Level Pressure 29.89 in    
Wind  
Wind Speed 6 mph ()    
Max Wind Speed 13 mph    
Max Gust Speed 18 mph    
Visibility 10.0 miles    
Events      
Averages and records for this station are not official NWS values.
T = Trace of Precipitation, MM = Missing Value Source: Averaged Metar Reports

Daily Weather History Graph

Daily Weather History Graph

Search for Another Location

Airport or City:

Astronomy

Sep. 13, 2019 Rise Set
Actual Time 6:07 AM MST 6:34 PM MST
Civil Twilight 5:43 AM MST 6:59 PM MST
Nautical Twilight 5:14 AM MST 7:28 PM MST
Astronomical Twilight 4:44 AM MST 7:58 PM MST
Moon 6:46 PM MST 5:33 AM MST
Length of Visible Light 13h 16m
Length of Day
12h 26m
Full, 100% of the Moon is Illuminated
Sep 13
Full
Sep 13
Full
Sep 21
Last Quarter
Sep 28
New
Oct 5
First Quarter

Hourly Weather History & Observations

Time (MST) Temp. Dew Point Humidity Pressure Visibility Wind Dir Wind Speed Gust Speed Precip Events Conditions
10:35 AM 93.2 °F 44.6 °F 19% 29.98 in 10.0 mi West 5.8 mph - N/A   Clear
10:55 AM 93.2 °F 41.0 °F 16% 29.98 in 10.0 mi WNW 5.8 mph - N/A   Clear
11:15 AM 95.0 °F 41.0 °F 15% 29.98 in 10.0 mi WSW 5.8 mph - N/A   Clear
11:35 AM 96.8 °F 42.8 °F 16% 29.97 in 10.0 mi Variable 5.8 mph - N/A   Clear
11:55 AM 96.8 °F 35.6 °F 12% 29.96 in 10.0 mi Variable 5.8 mph - N/A   Clear
12:15 PM 98.6 °F 35.6 °F 11% 29.96 in 10.0 mi West 8.1 mph - N/A   Clear
12:35 PM 98.6 °F 33.8 °F 10% 29.94 in 10.0 mi West 8.1 mph - N/A   Clear
12:55 PM 100.4 °F 33.8 °F 10% 29.93 in 10.0 mi WNW 8.1 mph - N/A   Clear
1:15 PM 100.4 °F 32.0 °F 9% 29.92 in 10.0 mi NW 6.9 mph 15.0 mph N/A   Clear
1:35 PM 102.2 °F 33.8 °F 9% 29.91 in 10.0 mi Variable 6.9 mph - N/A   Clear
1:55 PM 102.2 °F 32.0 °F 9% 29.89 in 10.0 mi WNW 6.9 mph - N/A   Clear
2:15 PM 102.2 °F 33.8 °F 9% 29.88 in 10.0 mi Variable 5.8 mph 12.7 mph N/A   Clear
2:35 PM 102.2 °F 33.8 °F 9% 29.87 in 10.0 mi West 9.2 mph 15.0 mph N/A   Clear
2:55 PM 104.0 °F 33.8 °F 9% 29.86 in 10.0 mi WNW 10.4 mph 17.3 mph N/A   Clear
3:15 PM 104.0 °F 35.6 °F 9% 29.86 in 10.0 mi West 12.7 mph - N/A   Clear
3:35 PM 104.0 °F 35.6 °F 9% 29.85 in 10.0 mi WNW 9.2 mph - N/A   Clear
3:55 PM 104.0 °F 33.8 °F 9% 29.85 in 10.0 mi WNW 9.2 mph 18.4 mph N/A   Clear
4:15 PM 104.0 °F 33.8 °F 9% 29.85 in 10.0 mi WNW 10.4 mph - N/A   Clear
4:35 PM 104.0 °F 35.6 °F 9% 29.84 in 10.0 mi WNW 10.4 mph - N/A   Clear
4:55 PM 104.0 °F 35.6 °F 9% 29.84 in 10.0 mi WNW 9.2 mph - N/A   Clear
5:15 PM 102.2 °F 37.4 °F 11% 29.84 in 10.0 mi WNW 8.1 mph 15.0 mph N/A   Clear
5:35 PM 102.2 °F 41.0 °F 12% 29.85 in 10.0 mi West 8.1 mph - N/A   Clear
5:55 PM 100.4 °F 41.0 °F 13% 29.85 in 10.0 mi West 6.9 mph - N/A   Clear
6:15 PM 98.6 °F 42.8 °F 15% 29.85 in 10.0 mi West 5.8 mph - N/A   Clear
6:35 PM 96.8 °F 42.8 °F 16% 29.85 in 10.0 mi WNW 4.6 mph - N/A   Clear
6:55 PM 96.8 °F 42.8 °F 16% 29.85 in 10.0 mi WNW 3.5 mph - N/A   Clear
7:15 PM 95.0 °F 41.0 °F 15% 29.86 in 10.0 mi Calm Calm - N/A   Clear
7:35 PM 95.0 °F 41.0 °F 15% 29.86 in 10.0 mi NNW 4.6 mph - N/A   Clear
7:55 PM 93.2 °F 41.0 °F 16% 29.86 in 10.0 mi NW 4.6 mph - N/A   Clear
8:15 PM 93.2 °F 41.0 °F 16% 29.87 in 10.0 mi Calm Calm - N/A   Clear
8:35 PM 91.4 °F 41.0 °F 17% 29.88 in 10.0 mi East 5.8 mph - N/A   Clear
8:55 PM 91.4 °F 39.2 °F 16% 29.89 in 10.0 mi East 5.8 mph - N/A   Clear
9:15 PM 89.6 °F 39.2 °F 17% 29.90 in 10.0 mi ESE 3.5 mph - N/A   Clear
9:55 PM 87.8 °F 41.0 °F 19% 29.90 in 10.0 mi ENE 4.6 mph - N/A   Clear
10:15 PM 86.0 °F 41.0 °F 20% 29.91 in 10.0 mi SE 3.5 mph - N/A   Clear
10:35 PM 84.2 °F 41.0 °F 22% 29.92 in 10.0 mi NNE 8.1 mph - N/A   Clear
10:50 PM 86.0 °F 44.6 °F 23% 29.92 in 10.0 mi East 6.9 mph - N/A   Clear
11:15 PM 86.0 °F 42.8 °F 22% 29.91 in 10.0 mi South 5.8 mph - N/A   Clear
11:35 PM 87.8 °F 41.0 °F 19% 29.92 in 10.0 mi SW 11.5 mph - N/A   Clear
11:55 PM 89.6 °F 41.0 °F 18% 29.92 in 10.0 mi SSW 10.4 mph 17.3 mph N/A   Clear